North Canton, OH

12:40 PM EST on January 24, 2017 (GMT -0500)
Akron-Canton Regional

Weather History for KCAK - August, 2014

Change the Weather History Date:

Sunday, August 31, 2014

  Actual Average Record
Temperature  
Mean Temperature 74 °F 68 °F  
Max Temperature 78 °F 78 °F 96 °F (1924)
Min Temperature 70 °F 58 °F 39 °F (1915)
Degree Days  
Heating Degree Days 0 1  
Month to date heating degree days 6 10  
Since 1 June heating degree days 31 69  
Since 1 July heating degree days 16 20  
Cooling Degree Days 9 4  
Month to date cooling degree days 200 183  
Year to date cooling degree days 636 582  
Since 1 June cooling degree days 560 540  
Growing Degree Days 24 (Base 50)    
Moisture  
Dew Point 67 °F    
Average Humidity 81    
Maximum Humidity 93    
Minimum Humidity 69    
Precipitation  
Precipitation 0.48 in 0.11 in 3.00 in (1975)
Month to date precipitation 5.72 3.56  
Year to date precipitation 35.79 27.20  
Snow  
Snow 0.00 in 0.00 in - ()
Month to date snowfall 0.0 0.0  
Since 1 June snowfall 0.0 0.0  
Since 1 July snowfall 0.0 0.0  
Snow Depth 0.00 in    
Sea Level Pressure  
Sea Level Pressure 30.01 in    
Wind  
Wind Speed 9 mph (SW)    
Max Wind Speed 16 mph    
Max Gust Speed 22 mph    
Visibility 7 miles    
Events Rain    
T = Trace of Precipitation, MM = Missing Value Source: NWS Daily Summary

Daily Weather History Graph

Daily Weather History Graph

Search for Another Location

Airport or City:

Trip Planner

Search our weather history database for the weather conditions in past years. The results will help you decide how hot, cold, wet, or windy it might be!

Date:

Astronomy

Aug. 31, 2014 Rise Set
Actual Time 6:51 AM EDT 7:59 PM EDT
Civil Twilight 6:23 AM EDT 8:27 PM EDT
Nautical Twilight 5:49 AM EDT 9:01 PM EDT
Astronomical Twilight 5:14 AM EDT 9:36 PM EDT
Moon 12:39 PM EDT (8/31) 11:11 PM EDT (8/31)
Length of Visible Light 14h 04m
Length of Day
13h 08m
Waxing Crescent, 32% of the Moon is Illuminated
Aug 31
Waxing Crescent
Sep 2
First Quarter
Sep 8
Full
Sep 15
Last Quarter
Sep 24
New

Hourly Weather History & Observations

Time (EDT) Temp. Dew Point Humidity Pressure Visibility Wind Dir Wind Speed Gust Speed Precip Events Conditions
12:51 AM 77.0 °F 64.9 °F 66% 30.01 in 10.0 mi WSW 6.9 mph - 0.00 in Rain Light Rain
1:51 AM 75.9 °F 64.0 °F 67% 30.02 in 7.0 mi WSW 11.5 mph - 0.00 in Rain Light Rain
2:51 AM 73.0 °F 66.0 °F 79% 30.02 in 6.0 mi West 3.5 mph - 0.02 in Rain Light Rain
3:51 AM 71.1 °F 66.0 °F 84% 30.01 in 3.0 mi WSW 9.2 mph - 0.09 in Rain Heavy Rain
4:08 AM 69.8 °F 66.2 °F 88% 30.04 in 3.0 mi WSW 10.4 mph - 0.10 in Rain Rain
4:51 AM 70.0 °F 66.9 °F 90% 30.00 in 3.0 mi SSW 9.2 mph - 0.27 in Rain Rain
5:20 AM 69.8 °F 66.2 °F 88% 30.03 in 4.0 mi SSW 9.2 mph - 0.03 in Rain Light Rain
5:51 AM 70.0 °F 66.9 °F 90% 29.99 in 4.0 mi SSW 8.1 mph - 0.05 in Rain Light Rain
6:51 AM 71.1 °F 66.9 °F 87% 30.01 in 4.0 mi SSW 9.2 mph - 0.00 in   Overcast
7:14 AM 71.6 °F 66.2 °F 83% 30.04 in 5.0 mi SSW 10.4 mph - N/A   Overcast
7:51 AM 71.1 °F 66.9 °F 87% 30.02 in 5.0 mi SSW 8.1 mph - N/A   Overcast
7:58 AM 71.6 °F 66.2 °F 83% 30.04 in 4.0 mi SSW 10.4 mph - N/A   Overcast
8:51 AM 71.1 °F 66.9 °F 87% 30.02 in 4.0 mi SSW 9.2 mph - N/A   Overcast
9:51 AM 72.0 °F 68.0 °F 87% 30.03 in 4.0 mi SSW 10.4 mph - 0.00 in Rain Light Rain
10:51 AM 73.4 °F 69.8 °F 88% 30.05 in 4.0 mi SSW 11.5 mph - N/A Rain Light Rain
11:51 AM 73.9 °F 69.1 °F 85% 30.02 in 4.0 mi SW 10.4 mph - 0.00 in Rain Light Rain
12:51 PM 75.9 °F 68.0 °F 76% 30.02 in 10.0 mi SW 11.5 mph - 0.00 in   Overcast
1:51 PM 75.0 °F 66.9 °F 76% 30.01 in 10.0 mi SW 11.5 mph - N/A   Overcast
2:51 PM 75.9 °F 66.9 °F 74% 30.00 in 10.0 mi SSW 12.7 mph - N/A   Overcast
3:51 PM 77.0 °F 66.9 °F 71% 29.98 in 10.0 mi SW 16.1 mph 21.9 mph N/A   Mostly Cloudy
4:24 PM 73.4 °F 68.0 °F 83% 30.01 in 1.8 mi SW 10.4 mph - 0.00 in Rain Light Rain
4:51 PM 73.0 °F 69.1 °F 87% 29.98 in 3.0 mi Variable 4.6 mph - 0.05 in Rain Light Rain
5:45 PM 75.2 °F 69.8 °F 83% 30.00 in 10.0 mi SW 9.2 mph 21.9 mph 0.00 in   Mostly Cloudy
5:51 PM 75.9 °F 70.0 °F 82% 29.98 in 10.0 mi SW 8.1 mph 21.9 mph 0.00 in   Mostly Cloudy
6:51 PM 75.9 °F 69.1 °F 79% 29.98 in 10.0 mi WSW 5.8 mph - N/A   Mostly Cloudy
7:51 PM 73.0 °F 68.0 °F 84% 29.99 in 10.0 mi SSW 4.6 mph - N/A   Mostly Cloudy
8:51 PM 73.0 °F 69.1 °F 87% 29.99 in 10.0 mi SSW 6.9 mph - N/A   Mostly Cloudy
9:51 PM 73.0 °F 69.1 °F 87% 29.99 in 10.0 mi SSW 8.1 mph - N/A   Mostly Cloudy
10:51 PM 73.0 °F 69.1 °F 87% 30.00 in 8.0 mi SSW 6.9 mph - N/A   Scattered Clouds
11:35 PM 71.6 °F 68.0 °F 88% 30.01 in 7.0 mi SSW 6.9 mph - N/A   Scattered Clouds
11:51 PM 72.0 °F 69.1 °F 91% 29.99 in 7.0 mi SSW 9.2 mph - N/A   Mostly Cloudy